Regional Weather Roundup
Issued by NWS

Home | Current Version | Previous Version | Text Only | Print | Product List | Glossary On
Versions: 1 2 3 4 5 6 7 8 9 10 11 12 13 14 15 16 17 18 19 20 21 22 23 24 25 26 27 28 29 30 31 32 33 34 35 36 37 38 39 40 41 42 43 44 45 46 47 48 49 50
000
ASCA42 TJSJ 230910
RWRPR
PUERTO RICO/U.S. VIRGIN ISLANDS HOURLY WEATHER ROUNDUP
NATIONAL WEATHER SERVICE SAN JUAN PR
500 AM AST SAT JUL 23 2016

PRZ001-004-231000-
PUERTO RICO

CITY           SKY/WX    TMP DP  RH WIND       PRES   REMARKS
SAN JUAN LMM   PTCLDY    81  73  78 CALM      29.99R
CEIBA          MOCLDY    81  73  78 NE10      30.00S
$$

PRZ006-007-231000-
U.S. VIRGIN ISLANDS

CITY           SKY/WX    TMP DP  RH WIND       PRES   REMARKS
CHRISTIANSTED  CLEAR     81  73  78 NE8       29.97R
$$

HOURLY WEATHER ROUNDUP FOR THE NEWS MEDIA

CITY           SKY/WX    TMP DP  RH WIND       PRES   REMARKS
ORLANDO        CLEAR     74  71  91 SE3       30.03S
NEW YORK       PTCLDY    78  71  79 SW9       29.83S
NEWARK         PTCLDY    81  64  56 W8        29.83R
CHICAGO        PTCLDY    79  75  87 W3        29.98S
HARTFORD       MOCLDY    71  69  93 SW3       29.75F FOG
BOSTON         CLEAR     76  68  76 W7        29.74S
DALLAS         CLEAR     85  71  63 S6        29.96S HX  90
PHILADELPHIA   CLEAR     77  68  73 W7        29.88R
LOS ANGELES    PTCLDY    72  59  63 E3        29.80F
WASHINGTON DC  FAIR      73  70  90 VRB3      29.95R


USA.gov is the U.S. government's official web portal to all federal, state and local government web resources and services.